Location: Cisewo
(53.3833°N, 14.9000°E)
Time: 05:46:52
(UTC+00:00)

NOAA 18 - Pass Details

Date: 19 September 2021
Orbit: 841 x 860 km, 99.0° (Epoch: 17 October)

Event Time Altitude Azimuth Distance (km) Brightness Sun altitude
Exits shadow 20:55:17 42° 253° (WSW) 1,195 6.0 -30.1°
Maximum altitude 20:55:36 42° 262° (W) 1,188 6.0 -30.2°
Drops below altitude 10° 21:00:48 10° 333° (NNW) 2,479 8.5 -30.6°
Sets 21:03:19 0° 340° (NNW) 3,422 9.5 -30.8°
